Year,Month,Day,Hour,Minute,Value (Times are PST for temperature in C)
2008,08,08,00,00,13.70
2008,08,08,00,01,13.70
2008,08,08,00,02,13.70
2008,08,08,00,03,13.70
2008,08,08,00,04,13.70
2008,08,08,00,05,13.70
2008,08,08,00,06,13.70
2008,08,08,00,07,13.70
2008,08,08,00,08,13.70
2008,08,08,00,09,13.70
2008,08,08,00,10,13.70
2008,08,08,00,11,13.70
2008,08,08,00,12,13.60
2008,08,08,00,13,13.70
2008,08,08,00,14,13.70
2008,08,08,00,15,13.60
2008,08,08,00,16,13.60
2008,08,08,00,17,13.60
2008,08,08,00,18,13.60
2008,08,08,00,19,13.60
2008,08,08,00,20,13.60
2008,08,08,00,21,13.50
2008,08,08,00,22,13.50
2008,08,08,00,23,13.50
2008,08,08,00,24,13.50
2008,08,08,00,25,13.50
2008,08,08,00,26,13.50
2008,08,08,00,27,13.50
2008,08,08,00,28,13.50
2008,08,08,00,29,13.40
2008,08,08,00,30,13.40
2008,08,08,00,31,13.40
2008,08,08,00,32,13.40
2008,08,08,00,33,13.40
2008,08,08,00,34,13.40
2008,08,08,00,35,13.40
2008,08,08,00,36,13.40
2008,08,08,00,37,13.50
2008,08,08,00,38,13.50
2008,08,08,00,39,13.50
2008,08,08,00,40,13.50
2008,08,08,00,41,13.50
2008,08,08,00,42,13.50
2008,08,08,00,43,13.50
2008,08,08,00,44,13.50
2008,08,08,00,45,13.50
2008,08,08,00,46,13.50
2008,08,08,00,47,13.50
2008,08,08,00,48,13.50
2008,08,08,00,49,13.50
2008,08,08,00,50,13.50
2008,08,08,00,51,13.40
2008,08,08,00,52,13.40
2008,08,08,00,53,13.40
2008,08,08,00,54,13.40
2008,08,08,00,55,13.40
2008,08,08,00,56,13.30
2008,08,08,00,57,13.30
2008,08,08,00,58,13.30
2008,08,08,00,59,13.30
2008,08,08,01,00,13.30
2008,08,08,01,01,13.30
2008,08,08,01,02,13.30
2008,08,08,01,03,13.30
2008,08,08,01,04,13.30
2008,08,08,01,05,13.30
2008,08,08,01,06,13.30
2008,08,08,01,07,13.30
2008,08,08,01,08,13.30
2008,08,08,01,09,13.30
2008,08,08,01,10,13.30
2008,08,08,01,11,13.30
2008,08,08,01,12,13.30
2008,08,08,01,13,13.30
2008,08,08,01,14,13.30
2008,08,08,01,15,13.20
2008,08,08,01,16,13.20
2008,08,08,01,17,13.20
2008,08,08,01,18,13.20
2008,08,08,01,19,13.20
2008,08,08,01,20,13.20
2008,08,08,01,21,13.20
2008,08,08,01,22,13.20
2008,08,08,01,23,13.20
2008,08,08,01,24,13.10
2008,08,08,01,25,13.10
2008,08,08,01,26,13.10
2008,08,08,01,27,13.10
2008,08,08,01,28,13.10
2008,08,08,01,29,13.10
2008,08,08,01,30,13.10
2008,08,08,01,31,13.10
2008,08,08,01,32,13.10
2008,08,08,01,33,13.00
2008,08,08,01,34,13.00
2008,08,08,01,35,13.00
2008,08,08,01,36,13.00
2008,08,08,01,37,12.90
2008,08,08,01,38,12.90
2008,08,08,01,39,12.90
2008,08,08,01,40,12.90
2008,08,08,01,41,12.90
2008,08,08,01,42,12.90
2008,08,08,01,43,12.80
2008,08,08,01,44,12.80
2008,08,08,01,45,12.80
2008,08,08,01,46,12.70
2008,08,08,01,47,12.70
2008,08,08,01,48,12.70
2008,08,08,01,49,12.70
2008,08,08,01,50,12.60
2008,08,08,01,51,12.60
2008,08,08,01,52,12.60
2008,08,08,01,53,12.50
2008,08,08,01,54,12.50
2008,08,08,01,55,12.40
2008,08,08,01,56,12.40
2008,08,08,01,57,12.40
2008,08,08,01,58,12.30
2008,08,08,01,59,12.30
2008,08,08,02,00,12.30
2008,08,08,02,01,12.30
2008,08,08,02,02,12.30
2008,08,08,02,03,12.20
2008,08,08,02,04,12.20
2008,08,08,02,05,12.20
2008,08,08,02,06,12.20
2008,08,08,02,07,12.20
2008,08,08,02,08,12.10
2008,08,08,02,09,12.10
2008,08,08,02,10,12.10
2008,08,08,02,11,12.10
2008,08,08,02,12,12.10
2008,08,08,02,13,12.10
2008,08,08,02,14,12.10
2008,08,08,02,15,12.10
2008,08,08,02,16,12.20
2008,08,08,02,17,12.20
2008,08,08,02,18,12.20
2008,08,08,02,19,12.20
2008,08,08,02,20,12.20
2008,08,08,02,21,12.20
2008,08,08,02,22,12.20
2008,08,08,02,23,12.20
2008,08,08,02,24,12.20
2008,08,08,02,25,12.20
2008,08,08,02,26,12.20
2008,08,08,02,27,12.20
2008,08,08,02,28,12.20
2008,08,08,02,29,12.20
2008,08,08,02,30,12.20
2008,08,08,02,31,12.20
2008,08,08,02,32,12.20
2008,08,08,02,33,12.20
2008,08,08,02,34,12.20
2008,08,08,02,35,12.10
2008,08,08,02,36,12.10
2008,08,08,02,37,12.10
2008,08,08,02,38,12.10
2008,08,08,02,39,12.10
2008,08,08,02,40,12.00
2008,08,08,02,41,12.00
2008,08,08,02,42,12.00
2008,08,08,02,43,12.00
2008,08,08,02,44,11.90
2008,08,08,02,45,11.90
2008,08,08,02,46,11.90
2008,08,08,02,47,11.90
2008,08,08,02,48,11.90
2008,08,08,02,49,11.90
2008,08,08,02,50,11.90
2008,08,08,02,51,11.90
2008,08,08,02,52,11.80
2008,08,08,02,53,11.80
2008,08,08,02,54,11.80
2008,08,08,02,55,11.80
2008,08,08,02,56,11.80
2008,08,08,02,57,11.70
2008,08,08,02,58,11.70
2008,08,08,02,59,11.70
2008,08,08,03,00,11.70
2008,08,08,03,01,11.70
2008,08,08,03,02,11.70
2008,08,08,03,03,11.70
2008,08,08,03,04,11.70
2008,08,08,03,05,11.70
2008,08,08,03,06,11.70
2008,08,08,03,07,11.70
2008,08,08,03,08,11.70
2008,08,08,03,09,11.70
2008,08,08,03,10,11.80
2008,08,08,03,11,11.80
2008,08,08,03,12,11.80
2008,08,08,03,13,11.80
2008,08,08,03,14,11.80
2008,08,08,03,15,11.90
2008,08,08,03,16,11.90
2008,08,08,03,17,11.90
2008,08,08,03,18,11.80
2008,08,08,03,19,11.80
2008,08,08,03,20,11.80
2008,08,08,03,21,11.80
2008,08,08,03,22,11.80
2008,08,08,03,23,11.70
2008,08,08,03,24,11.70
2008,08,08,03,25,11.70
2008,08,08,03,26,11.60
2008,08,08,03,27,11.50
2008,08,08,03,28,11.50
2008,08,08,03,29,11.40
2008,08,08,03,30,11.40
2008,08,08,03,31,11.30
2008,08,08,03,32,11.30
2008,08,08,03,33,11.30
2008,08,08,03,34,11.30
2008,08,08,03,35,11.30
2008,08,08,03,36,11.30
2008,08,08,03,37,11.30
2008,08,08,03,38,11.30
2008,08,08,03,39,11.30
2008,08,08,03,40,11.30
2008,08,08,03,41,11.30
2008,08,08,03,42,11.30
2008,08,08,03,43,11.20
2008,08,08,03,44,11.20
2008,08,08,03,45,11.20
2008,08,08,03,46,11.20
2008,08,08,03,47,11.10
2008,08,08,03,48,11.10
2008,08,08,03,49,11.10
2008,08,08,03,50,11.10
2008,08,08,03,51,11.10
2008,08,08,03,52,11.10
2008,08,08,03,53,11.10
2008,08,08,03,54,11.10
2008,08,08,03,55,11.10
2008,08,08,03,56,11.00
2008,08,08,03,57,11.00
2008,08,08,03,58,11.00
2008,08,08,03,59,10.90
2008,08,08,04,00,10.90
2008,08,08,04,01,10.80
2008,08,08,04,02,10.80
2008,08,08,04,03,10.70
2008,08,08,04,04,10.70
2008,08,08,04,05,10.70
2008,08,08,04,06,10.60
2008,08,08,04,07,10.60
2008,08,08,04,08,10.60
2008,08,08,04,09,10.60
2008,08,08,04,10,10.60
2008,08,08,04,11,10.60
2008,08,08,04,12,10.60
2008,08,08,04,13,10.60
2008,08,08,04,14,10.60
2008,08,08,04,15,10.60
2008,08,08,04,16,10.70
2008,08,08,04,17,10.70
2008,08,08,04,18,10.70
2008,08,08,04,19,10.70
2008,08,08,04,20,10.70
2008,08,08,04,21,10.70
2008,08,08,04,22,10.70
2008,08,08,04,23,10.70
2008,08,08,04,24,10.70
2008,08,08,04,25,10.70
2008,08,08,04,26,10.70
2008,08,08,04,27,10.80
2008,08,08,04,28,10.80
2008,08,08,04,29,10.80
2008,08,08,04,30,10.80
2008,08,08,04,31,10.80
2008,08,08,04,32,10.80
2008,08,08,04,33,10.90
2008,08,08,04,34,10.90
2008,08,08,04,35,10.90
2008,08,08,04,36,10.90
2008,08,08,04,37,10.90
2008,08,08,04,38,10.90
2008,08,08,04,39,11.00
2008,08,08,04,40,11.00
2008,08,08,04,41,11.00
2008,08,08,04,42,11.00
2008,08,08,04,43,11.10
2008,08,08,04,44,11.10
2008,08,08,04,45,11.10
2008,08,08,04,46,11.10
2008,08,08,04,47,11.10
2008,08,08,04,48,11.10
2008,08,08,04,49,11.10
2008,08,08,04,50,11.10
2008,08,08,04,51,11.10
2008,08,08,04,52,11.10
2008,08,08,04,53,11.20
2008,08,08,04,54,11.20
2008,08,08,04,55,11.20
2008,08,08,04,56,11.20
2008,08,08,04,57,11.20
2008,08,08,04,58,11.20
2008,08,08,04,59,11.30
2008,08,08,05,00,11.30
2008,08,08,05,01,11.30
2008,08,08,05,02,11.30
2008,08,08,05,03,11.30
2008,08,08,05,04,11.30
2008,08,08,05,05,11.30
2008,08,08,05,06,11.30
2008,08,08,05,07,11.20
2008,08,08,05,08,11.20
2008,08,08,05,09,11.20
2008,08,08,05,10,11.20
2008,08,08,05,11,11.10
2008,08,08,05,12,11.10
2008,08,08,05,13,11.10
2008,08,08,05,14,11.10
2008,08,08,05,15,11.10
2008,08,08,05,16,11.10
2008,08,08,05,17,11.10
2008,08,08,05,18,11.10
2008,08,08,05,19,11.10
2008,08,08,05,20,11.10
2008,08,08,05,21,11.10
2008,08,08,05,22,11.10
2008,08,08,05,23,11.10
2008,08,08,05,24,11.10
2008,08,08,05,25,11.10
2008,08,08,05,26,11.20
2008,08,08,05,27,11.20
2008,08,08,05,28,11.20
2008,08,08,05,29,11.20
2008,08,08,05,30,11.30
2008,08,08,05,31,11.30
2008,08,08,05,32,11.30
2008,08,08,05,33,11.30
2008,08,08,05,34,11.30
2008,08,08,05,35,11.30
2008,08,08,05,36,11.30
2008,08,08,05,37,11.30
2008,08,08,05,38,11.30
2008,08,08,05,39,11.30
2008,08,08,05,40,11.30
2008,08,08,05,41,11.30
2008,08,08,05,42,11.30
2008,08,08,05,43,11.30
2008,08,08,05,44,11.30
2008,08,08,05,45,11.30
2008,08,08,05,46,11.30
2008,08,08,05,47,11.30
2008,08,08,05,48,11.30
2008,08,08,05,49,11.30
2008,08,08,05,50,11.30
2008,08,08,05,51,11.30
2008,08,08,05,52,11.30
2008,08,08,05,53,11.30
2008,08,08,05,54,11.30
2008,08,08,05,55,11.30
2008,08,08,05,56,11.20
2008,08,08,05,57,11.20
2008,08,08,05,58,11.20
2008,08,08,05,59,11.20
2008,08,08,06,00,11.20
2008,08,08,06,01,11.10
2008,08,08,06,02,11.10
2008,08,08,06,03,11.10
2008,08,08,06,04,11.10
2008,08,08,06,05,11.10
2008,08,08,06,06,11.10
2008,08,08,06,07,11.10
2008,08,08,06,08,11.10
2008,08,08,06,09,11.10
2008,08,08,06,10,11.10
2008,08,08,06,11,11.10
2008,08,08,06,12,11.10
2008,08,08,06,13,11.10
2008,08,08,06,14,11.10
2008,08,08,06,15,11.10
2008,08,08,06,16,11.10
